STARLINK-1022 (44727 NORAD) Tracking and Keplerian Element Data

This shows tracking and keplerian element data for the satellite.

Feedback or suggestion? Click here.




ElementValue
Catalog44727
NameSTARLINK-1022
Epoch Orbit1116
Epoch Day23.25001157
Epoch Year2020
RAAN190.4294
Inclination53.0075
Eccentricity0.0001565
Argument of Perigee75.1129
Mean Anonmoly222.222
Mean Motion15.05484617
Decay Rate0.00442536
L11 44727U 19074Q 20023.25001157 .00442536 00000-0 28882-1 0 9996
L22 44727 53.0075 190.4294 0001565 75.1129 222.2220 15.05484617 11169

Live tracking and technical data element details for STARLINK-1022 (NORAD 44727). STARLINK-1022 can be tracked NOW for your location showing map with azimuth and elevation plus other details from your city location.

Track the satellite on the map from your city or location and see movement details for azimuth, elevation, latitude, longitude, range, height, and movement on the map or in text.







IsCatalogInMostPopularTable: catalog: 44727, numindb: 8
Update: records affected: 1



GetName: 44727 STARLINK-1022

Hit Count: updated at: Fri, 24 Jan 2020 14:41:24 GMT